Flag for Germany Weather past 2 weeks in Bornheim (Rheinland), North Rhine-Westphalia, Germany

Now
60 °F

Overcast.


Feels Like: 60 °F
Forecast: 56 / 71 °F
Wind: 2 mph from Southeast

Location: Bonn-Hangelar

Current Time: Aug 27, 2014 at 9:54:39 PM

Latest Report: Aug 27, 2014 at 9:00 PM


Visibility: 38 mi

Pressure: 30.01 "Hg

Humidity: 84%

Dew point: 56 °F

Location of Bornheim (Rheinland)Location

Historic Weather in Bornheim (Rheinland) — Graph

°F

Bornheim (Rheinland) temperature yesterday

Maximum temperature yesterday: 61 °F (at 4:00 PM)
Minimum temperature yesterday: 54 °F (at 2:00 AM)
Average temperature yesterday: 57 °F

Past Weeks' High & Low Weather Summary

 TemperatureHumidityPressure
High67 °F (Aug 27, 4:00 PM)99% (Aug 26, 4:00 AM)30.13 "Hg (Aug 26, 4:00 AM)
Low47 °F (Aug 21, 6:00 AM)51% (Aug 22, 4:00 PM)29.61 "Hg (Aug 26, 6:00 AM)
Average56 °F82%29.91 "Hg
* Reported Aug 12 8:00 PM — Aug 27 8:00 PM, Bornheim (Rheinland), Weather by CustomWeather, © 2014

Note: Actual official high and low records may vary slightly from our data, if they occured in-between our weather recording intervals... More about our weather records

Advertising

Bornheim (Rheinland) weather history for previous 24 hours

 ConditionsComfort  
Time TempWeatherWind HumidityBarometerVisibility
8:00 PM
Aug 27
64 °FPartly sunny.3 mph72%29.99 "Hg37 mi
7:00 PM65 °FPartly sunny.2 mph67%29.99 "Hg37 mi
6:00 PM66 °FPartly sunny.2 mph59%30.00 "Hg37 mi
5:00 PM66 °FScattered clouds.3 mph60%30.00 "Hg37 mi
4:00 PM67 °FPartly sunny.3 mph58%30.00 "Hg37 mi
3:00 PM65 °FPartly sunny.5 mph65%30.01 "Hg37 mi
2:00 PM64 °FPartly sunny.3 mph69%30.01 "Hg28 mi
1:00 PM62 °FPassing clouds.14 mph75%30.01 "Hg5 mi
12:00 PM61 °FPartly sunny.5 mph80%30.01 "Hg22 mi
11:00 AM60 °FPassing clouds.5 mph86%30.00 "Hg19 mi
10:00 AM57 °FScattered clouds.5 mph90%29.99 "Hg11 mi
9:00 AM55 °FFog.5 mph95%29.98 "Hg4 mi
8:00 AM54 °FFog.3 mph97%29.95 "Hg3 mi
7:00 AM54 °FFog.5 mph97%29.93 "Hg2 mi
6:00 AM54 °FFog.5 mph98%29.91 "Hg4 mi
5:00 AM55 °FFog.2 mph98%29.90 "Hg1 mi
4:00 AM54 °FFog.3 mph98%29.88 "Hg4 mi
3:00 AM55 °FLow clouds.5 mph98%29.86 "Hg3 mi
2:00 AM55 °FDrizzle. Low clouds.3 mph98%29.85 "Hg1 mi
1:00 AM55 °FLight rain. Low clouds.3 mph98%29.83 "Hg1 mi
12:00 AM55 °FLight rain. Low clouds.3 mph98%29.81 "Hg1 mi
11:00 PM
Aug 26
56 °FLight rain. Low clouds.2 mph98%29.80 "Hg3 mi
10:00 PM55 °FLight rain. Low clouds.3 mph98%29.78 "Hg2 mi
9:00 PM56 °FRain. Low clouds.5 mph98%29.74 "Hg2 mi
Weather by CustomWeather, © 2014

See weather overviewHow to use our weather pages